|
Cosmos 1943 Rocket - Orbit
|
Mount Graham;
04:18:35
| Home | Info | Passes |
|
View from above orbital plane
|
View from above satellite
|
Ground track
|
The orbit data is extracted from the following two-line orbital elements,
1 19120U 88039B 13139.82767608 .00000165 00000-0 10166-3 0 7810
2 19120 071.0163 231.3767 0023839 308.4764 190.8803 14.18966288295108
| Epoch (UTC): | 19 May 2013 19:51:51 |
| Eccentricity: | 0.0023839 |
| inclination: | 71.0163° |
| perigee height: | 811 km |
| apogee height: | 846 km |
| right ascension of ascending node: | 231.3767° |
| argument of perigee: | 308.4764° |
| revolutions per day: | 14.18966288 |
| mean anomaly at epoch: | 190.8803° |
| orbit number at epoch: | 29510 |
The dashed part of the orbit path shows where the satellite is in the earth's shadow,
|
|